EST,Max TemperatureF,Mean TemperatureF,Min TemperatureF,Max Dew PointF,MeanDew PointF,Min DewpointF,Max Humidity, Mean Humidity, Min Humidity, Max Sea Level PressureIn, Mean Sea Level PressureIn, Min Sea Level PressureIn, Max VisibilityMiles, Mean VisibilityMiles, Min VisibilityMiles, Max Wind SpeedMPH, Mean Wind SpeedMPH, Max Gust SpeedMPH,PrecipitationIn, CloudCover, Events, WindDirDegrees
2013-11-1,69,66,62,63,61,57,94,84,73,29.87,29.71,29.64,10,10,5,18,11,28,0.11,5,,204
2013-11-2,66,60,55,63,51,43,94,70,43,29.84,29.70,29.62,10,8,1,9,5,17,0.09,4,,313
2013-11-3,55,47,37,43,34,21,76,54,35,30.43,30.11,29.84,10,10,10,15,9,22,0.00,2,,333
2013-11-4,48,40,32,30,25,18,75,55,42,30.62,30.57,30.45,10,10,10,16,11,22,0.00,0,,18
2013-11-5,59,48,37,45,39,30,87,72,55,30.62,30.57,30.48,10,10,10,12,5,,0.00,1,,60
2013-11-6,62,50,39,57,47,36,94,79,59,30.49,30.34,30.12,10,10,10,16,5,18,0.00,2,,151
2013-11-7,62,55,48,59,52,32,94,82,54,30.11,29.95,29.82,10,8,2,15,10,26,0.31,6,,253
2013-11-8,51,46,42,34,27,23,58,46,37,30.30,30.15,30.01,10,10,10,16,12,26,0.00,3,,303
2013-11-9,51,45,39,36,29,25,62,50,38,30.37,30.25,30.07,10,10,10,13,7,21,0.00,0,,255
2013-11-10,62,55,48,39,35,27,62,51,37,30.17,30.03,29.92,10,10,8,18,12,26,0.00,0,,266
2013-11-11,53,48,42,36,31,28,66,51,41,30.30,30.19,30.05,10,10,10,20,11,24,0.00,2,,260
2013-11-12,51,42,33,37,25,12,75,51,36,30.32,30.15,29.99,10,10,10,18,12,28,0.00,5,,320
2013-11-13,39,34,30,21,14,10,52,42,31,30.41,30.37,30.33,10,10,10,15,10,26,0.00,0,,321
2013-11-14,57,47,37,32,25,18,61,46,25,30.38,30.31,30.24,10,10,10,17,10,22,0.00,0,,241
2013-11-15,55,48,41,36,33,30,81,57,41,30.28,30.24,30.21,10,10,10,13,8,16,0.00,0,,226
2013-11-16,51,46,42,46,44,36,93,85,66,30.36,30.30,30.26,10,8,0,9,3,,0.41,6,,50
2013-11-17,64,55,46,59,52,45,94,88,77,30.25,30.13,29.93,10,6,0,14,2,,0.00,7,,149
2013-11-18,66,58,51,48,38,30,67,47,37,29.86,29.78,29.72,10,10,10,16,10,24,0.01,1,,273
2013-11-19,51,44,37,30,25,21,53,46,40,30.36,30.12,29.86,10,10,9,20,11,29,0.00,0,,328
2013-11-20,44,38,32,28,23,19,75,58,49,30.56,30.51,30.35,10,10,10,15,9,22,0.00,0,,20
2013-11-21,55,42,30,43,35,25,87,72,51,30.57,30.50,30.41,10,10,10,13,5,,0.00,5,,65
2013-11-22,60,52,44,52,49,41,93,84,72,30.40,30.17,29.98,10,9,5,14,5,20,0.13,7,,221
2013-11-23,55,45,35,52,30,16,94,56,36,30.10,30.04,29.98,10,10,5,21,10,34,0.01,1,,305
2013-11-24,35,30,26,12,3,-2,47,33,27,30.48,30.29,30.08,10,10,10,22,16,38,0.00,3,,318
2013-11-25,37,30,26,21,13,7,59,48,40,30.58,30.48,30.40,10,10,10,15,9,20,0.00,1,,274
2013-11-26,55,46,37,54,30,18,94,63,42,30.41,30.20,29.74,10,10,5,21,9,29,0.35,7,,143
2013-11-27,39,37,33,34,27,18,87,66,48,29.92,29.73,29.55,10,10,4,22,18,36,0.01,7,,299
2013-11-28,37,32,26,25,17,14,80,53,41,30.52,30.30,29.93,10,10,10,24,14,36,0.00,3,,293
2013-11-29,41,34,26,28,21,16,86,61,42,30.73,30.59,30.50,10,10,10,10,3,,0.00,1,,328
2013-11-30,42,33,24,32,24,14,75,64,53,30.72,30.60,30.36,10,10,10,12,7,,0.00,3,,26